White Plains, CT

1:08 PM EST on December 06, 2019 (GMT -0500)
Westchester County

Weather History for KHPN - August, 2019

Change the Weather History Date:

Saturday, August 17, 2019

  Actual Average Record
Temperature  
Mean Temperature 76 °F -  
Max Temperature 82 °F 78 °F 91 °F (2015)
Min Temperature 69 °F 62 °F 51 °F (1979)
Cooling Degree Days 10    
Growing Degree Days 26 (Base 50)    
Moisture  
Dew Point 71 °F    
Average Humidity 89    
Maximum Humidity 100    
Minimum Humidity 69    
Precipitation  
Precipitation 0.00 in - - ()
Sea Level Pressure  
Sea Level Pressure 30.01 in    
Wind  
Wind Speed 5 mph (ESE)    
Max Wind Speed 12 mph    
Max Gust Speed -    
Visibility 7 miles    
Events Fog , Thunderstorm    
Averages and records for this station are not official NWS values.
T = Trace of Precipitation, MM = Missing Value Source: NWS Daily Summary

Daily Weather History Graph

Daily Weather History Graph

Search for Another Location

Airport or City:

Astronomy

Aug. 17, 2019 Rise Set
Actual Time 6:06 AM EDT 7:50 PM EDT
Civil Twilight 5:36 AM EDT 8:20 PM EDT
Nautical Twilight 5:01 AM EDT 8:55 PM EDT
Astronomical Twilight 4:22 AM EDT 9:33 PM EDT
Moon 9:16 PM EDT (8/17) 7:52 AM EDT (8/17)
Length of Visible Light 14h 43m
Length of Day
13h 44m
Waning Gibbous, 96% of the Moon is Illuminated
Aug 17
Waning Gibbous
Aug 23
Last Quarter
Aug 30
New
Sep 5
First Quarter
Sep 14
Full

Hourly Weather History & Observations

Time (EDT) Temp. Heat Index Dew Point Humidity Pressure Visibility Wind Dir Wind Speed Gust Speed Precip Events Conditions
12:05 AM 70.0 °F - 69.1 °F 97% 30.05 in 10.0 mi ESE 3.5 mph - N/A   Overcast
12:56 AM 70.0 °F - 69.1 °F 97% 30.04 in 6.0 mi East 4.6 mph - N/A   Overcast
1:56 AM 71.1 °F - 69.1 °F 93% 30.03 in 10.0 mi ESE 6.9 mph - N/A   Overcast
2:28 AM 71.1 °F - 69.1 °F 93% 30.05 in 10.0 mi East 3.5 mph - N/A   Overcast
2:56 AM 71.1 °F - 69.1 °F 93% 30.03 in 10.0 mi East 4.6 mph - N/A   Overcast
3:56 AM 71.1 °F - 69.1 °F 93% 30.02 in 10.0 mi East 4.6 mph - N/A   Overcast
4:56 AM 71.1 °F - 69.1 °F 93% 30.01 in 10.0 mi East 3.5 mph - N/A   Overcast
5:53 AM 69.8 °F - 69.8 °F 100% 30.03 in 0.5 mi ESE 3.5 mph - 0.00 in Fog Light Drizzle
5:56 AM 70.0 °F - 70.0 °F 100% 30.02 in 0.5 mi ESE 3.5 mph - 0.00 in Fog Light Drizzle
6:56 AM 71.1 °F - 70.0 °F 96% 30.02 in 0.5 mi East 4.6 mph - 0.00 in Fog Fog
7:56 AM 71.1 °F - 70.0 °F 96% 30.03 in 0.5 mi East 3.5 mph - N/A Fog Fog
8:46 AM 72.0 °F - 70.0 °F 93% 30.04 in 6.0 mi East 3.5 mph - N/A   Overcast
8:56 AM 73.0 °F - 70.0 °F 90% 30.02 in 6.0 mi NE 3.5 mph - N/A   Overcast
9:26 AM 73.0 °F - 70.0 °F 90% 30.05 in 6.0 mi East 3.5 mph - N/A   Overcast
9:56 AM 73.0 °F - 71.1 °F 93% 30.03 in 8.0 mi ESE 6.9 mph - N/A   Overcast
10:56 AM 75.9 °F - 70.0 °F 82% 30.04 in 10.0 mi ESE 3.5 mph - N/A   Mostly Cloudy
11:56 AM 80.1 °F 83.8 °F 72.0 °F 76% 30.03 in 10.0 mi ESE 4.6 mph - N/A   Mostly Cloudy
12:56 PM 81.0 °F 84.9 °F 71.1 °F 72% 30.01 in 10.0 mi ESE 5.8 mph - N/A   Scattered Clouds
1:56 PM 82.9 °F 88.0 °F 72.0 °F 69% 30.01 in 10.0 mi SSE 6.9 mph - N/A   Scattered Clouds
2:56 PM 82.0 °F 86.3 °F 71.1 °F 69% 29.99 in 10.0 mi SE 8.1 mph - N/A   Partly Cloudy
3:56 PM 79.0 °F - 71.1 °F 77% 29.97 in 10.0 mi ESE 11.5 mph - N/A   Clear
4:56 PM 80.1 °F 83.6 °F 71.1 °F 74% 29.95 in 10.0 mi ESE 11.5 mph - N/A   Clear
5:56 PM 79.0 °F - 71.1 °F 77% 29.95 in 10.0 mi ESE 9.2 mph - N/A   Clear
6:56 PM 78.1 °F - 72.0 °F 81% 29.95 in 10.0 mi ESE 6.9 mph - N/A   Clear
7:56 PM 75.0 °F - 72.0 °F 90% 29.96 in 10.0 mi ESE 6.9 mph - N/A   Partly Cloudy
8:56 PM 73.0 °F - 72.0 °F 96% 29.98 in 10.0 mi ESE 5.8 mph - N/A   Scattered Clouds
9:05 PM 73.0 °F - 72.0 °F 96% 29.99 in 1.0 mi SE 4.6 mph - N/A   Mostly Cloudy
9:56 PM 73.9 °F - 72.0 °F 93% 29.98 in 2.5 mi SE 5.8 mph - N/A   Overcast
10:56 PM 73.9 °F - 72.0 °F 93% 29.99 in 7.0 mi SE 5.8 mph - N/A   Mostly Cloudy
11:56 PM 73.9 °F - 72.0 °F 93% 29.99 in 6.0 mi Variable 3.5 mph - N/A Thunderstorm Mostly Cloudy